[[{"header":{"parameterUnit":"m.s-1","parameterCategory":1,"la1":30.2991,"la2":30.254,"lo1":-89.0895,"lo2":-89.0444,"dy":0.0017,"dx":0.0017,"nx":28,"ny":28,"refTime":"2024-03-09T03:00:00:Z","depth":0,"parameterNumber":2,"parameterNumberName":"U-component_of_WINDS"},"data":[0,0,0,0,0,0,0,0,0,0,0,0,0,0,0,0,0,0,0,0,0,0,0,0,0,0,0,0,0,0,0,0,0,0,0,0,0,0,0,0,0,0,0,0,0,0,0,0,0,0,0,0,0,0,0,0,0,0,-0.0471,-0.0472,0,-0.0504,-0.0504,-0.0504,-0.0488,-0.0487,-0.0486,-0.0486,-0.0522,-0.0523,-0.0525,0,0,0,0,0,0,0,0,0,0,0,0,0,-0.0397,-0.0398,-0.0471,-0.0472,-0.0472,-0.0504,-0.0504,-0.0505,-0.0488,-0.0487,-0.0486,-0.0485,-0.0521,-0.0523,-0.0525,0,0,0,0,0,0,0,0,0,0,0,0,0,-0.0429,-0.0399,-0.0471,-0.0468,-0.0468,-0.0504,-0.0504,-0.0505,-0.0488,-0.0487,-0.0486,-0.0485,-0.052,-0.0523,-0.0525,-0.0568,0,0,-0.0534,-0.0535,0,0,0,0,0,0,0,0,-0.0428,-0.0432,-0.0468,-0.0468,-0.0468,-0.049,-0.0491,-0.0526,-0.0489,-0.0481,-0.0486,-0.0484,-0.0512,-0.0516,-0.0525,-0.0569,-0.0571,-0.0534,-0.0535,-0.0537,-0.0537,0,0,0,0,0,0,0,-0.0425,-0.0431,-0.0484,-0.0468,-0.0469,-0.0465,-0.0468,-0.0498,-0.0504,-0.0481,-0.048,-0.0484,-0.0512,-0.0522,-0.0525,-0.0571,-0.0534,-0.0536,-0.0538,-0.0539,-0.0651,-0.0653,0,0,0,0,0,0,-0.0423,-0.0429,-0.0483,-0.0485,-0.0444,-0.0467,-0.0471,-0.0485,-0.0503,-0.0505,-0.0485,-0.0483,-0.0518,-0.0522,-0.0527,-0.0577,-0.0536,-0.0539,-0.054,-0.065,-0.0652,-0.0653,0,0,0,0,0,0,-0.0421,-0.0428,-0.0482,-0.0457,-0.0463,-0.047,-0.0486,-0.0486,-0.0496,-0.0506,-0.0507,-0.0494,-0.0517,-0.0523,-0.0557,-0.0578,-0.054,-0.0543,-0.0648,-0.065,-0.0652,-0.0678,0,0,0,0,0,0,-0.0419,-0.0428,-0.0443,-0.0457,-0.0465,-0.0512,-0.0487,-0.0488,-0.05,-0.0498,-0.0515,-0.0516,-0.0517,-0.0553,-0.056,-0.0581,-0.0545,-0.0646,-0.0649,-0.0652,-0.0676,-0.0681,-0.0686,0,0,0,0,0,-0.0417,-0.045,-0.0444,-0.0451,-0.0485,-0.0513,-0.0517,-0.0516,-0.0502,-0.0518,-0.0524,-0.0516,-0.0574,-0.0557,-0.0564,-0.0586,-0.0645,-0.0648,-0.0652,-0.0673,-0.068,-0.0686,0,0,0,0,0,0,-0.044,-0.0452,-0.0446,-0.0484,-0.0497,-0.051,-0.0531,-0.0524,-0.0542,-0.0539,-0.0538,-0.0542,-0.0578,-0.0585,-0.0566,-0.0628,-0.0608,-0.0612,-0.0622,-0.0628,-0.0633,-0.0631,-0.0547,0,0,0,0,0,-0.0449,-0.0471,-0.048,-0.0513,-0.052,-0.0524,-0.0537,-0.0534,-0.0549,-0.0554,-0.0563,-0.0578,-0.0599,-0.0614,-0.0634,-0.0676,-0.068,-0.0695,-0.07,-0.0704,-0.0708,-0.0731,-0.0738,-0.0664,-0.0664,-0.0663,0,0,-0.047,-0.0479,-0.0493,-0.0518,-0.0528,-0.0551,-0.0529,-0.0554,-0.0571,-0.0559,-0.0591,-0.0598,-0.0614,-0.0652,-0.0669,-0.066,-0.0729,-0.0708,-0.0711,-0.0714,-0.0735,-0.0742,-0.0748,-0.0666,-0.0665,-0.0665,0,0,-0.0518,-0.0527,-0.0555,-0.0565,-0.058,-0.0582,-0.0589,-0.0602,-0.0606,-0.0638,-0.0629,-0.0649,-0.0687,-0.0698,-0.0709,-0.076,-0.0753,-0.0767,-0.0794,-0.0815,-0.0821,-0.0826,-0.0845,-0.0851,-0.0771,-0.0771,-0.0771,0,-0.0542,-0.0575,-0.0571,-0.0597,-0.0608,-0.0596,-0.0625,-0.0635,-0.0657,-0.0665,-0.0653,-0.0699,-0.0709,-0.075,-0.0762,-0.0771,-0.0779,-0.0766,-0.082,-0.0825,-0.083,-0.0848,-0.0855,-0.0773,-0.0772,-0.0772,-0.0772,0,-0.0604,-0.0626,-0.0648,-0.0667,-0.0681,-0.0708,-0.0709,-0.0723,-0.0719,-0.0723,-0.0756,-0.0767,-0.0789,-0.0798,-0.0795,-0.0838,-0.0832,-0.082,-0.08,-0.0839,-0.0856,-0.0862,-0.0775,-0.0774,-0.0774,-0.0773,0,0,-0.067,-0.0685,-0.0693,-0.0702,-0.0716,-0.0734,-0.076,-0.0781,-0.0794,-0.0808,-0.083,-0.0861,-0.085,-0.0862,-0.086,-0.0879,-0.0919,-0.0865,-0.0866,-0.0876,-0.0967,-0.0976,-0.0984,-0.0913,-0.0915,-0.0916,-0.0966,0,-0.072,-0.0765,-0.0762,-0.0805,-0.0826,-0.0814,-0.0837,-0.0848,-0.0852,-0.087,-0.0874,-0.0896,-0.088,-0.0887,-0.0905,-0.091,-0.0937,-0.0906,-0.0935,-0.0936,-0.0933,-0.0993,-0.1003,-0.105,-0.0972,-0.0973,-0.0974,0,-0.0785,-0.0801,-0.0845,-0.0856,-0.0864,-0.0885,-0.0903,-0.0921,-0.0934,-0.0935,-0.0947,-0.0942,-0.0968,-0.0946,-0.0983,-0.0962,-0.0973,-0.0977,-0.0979,-0.0983,-0.0959,-0.0999,-0.1065,-0.1072,-0.0984,-0.0983,-0.0983,0,-0.083,-0.0862,-0.0893,-0.09,-0.0913,-0.0927,-0.0934,-0.0945,-0.0957,-0.0973,-0.098,-0.0999,-0.101,-0.1025,-0.1025,-0.1008,-0.1062,-0.104,-0.1064,-0.1065,-0.1078,-0.1077,-0.1147,-0.1083,-0.1083,-0.1083,-0.1083,0,-0.0887,-0.0915,-0.0913,-0.0932,-0.0963,-0.0958,-0.0989,-0.0994,-0.1003,-0.1023,-0.1014,-0.1033,-0.103,-0.105,-0.1049,-0.108,-0.1085,-0.1087,-0.1087,-0.1088,-0.1088,-0.1097,-0.1094,-0.1085,-0.1084,-0.1084,-0.1084,0,-0.0944,-0.0943,-0.0976,-0.0984,-0.0987,-0.1009,-0.1017,-0.1035,-0.1036,-0.1062,-0.1067,-0.107,-0.1092,-0.1092,-0.1118,-0.1118,-0.1155,-0.1151,-0.1151,-0.1151,-0.1175,-0.1173,-0.1255,-0.1265,-0.1193,-0.1194,-0.1194,0,-0.0981,-0.1002,-0.1012,-0.1024,-0.1031,-0.1051,-0.1062,-0.1058,-0.1071,-0.1086,-0.1103,-0.1123,-0.114,-0.1175,-0.118,-0.1199,-0.1196,-0.1223,-0.1199,-0.12,-0.1197,-0.1196,-0.1199,-0.1228,-0.1229,-0.123,-0.123,0,-0.1047,-0.1045,-0.1062,-0.1079,-0.1093,-0.1107,-0.1119,-0.1129,-0.1126,-0.1141,-0.1163,-0.1176,-0.12,-0.1221,-0.1239,-0.1246,-0.1238,-0.1237,-0.1244,-0.1247,-0.1246,-0.1247,-0.1165,-0.1236,-0.1235,-0.1235,-0.1235,-0.1234,-0.1096,-0.1114,-0.1123,-0.1143,-0.1151,-0.1162,-0.1179,-0.1182,-0.12,-0.1219,-0.1215,-0.124,-0.1251,-0.1274,-0.1282,-0.1301,-0.1292,-0.1301,-0.1304,-0.1307,-0.131,-0.1242,-0.1304,-0.1304,-0.1304,-0.1304,-0.1304,0,-0.1162,-0.1167,-0.1185,-0.1201,-0.1216,-0.1205,-0.1218,-0.1231,-0.1253,-0.1263,-0.1279,-0.1303,-0.1323,-0.1328,-0.1347,-0.1361,-0.1358,-0.1366,-0.1366,-0.1368,-0.1317,-0.1309,-0.1369,-0.1369,-0.1369,-0.1369,-0.1369,-0.1369,-0.1199,-0.1229,-0.1228,-0.1261,-0.1266,-0.1289,-0.1297,-0.1307,-0.1315,-0.1343,-0.1359,-0.1361,-0.137,-0.1389,-0.1406,-0.1407,-0.1415,-0.1425,-0.1425,-0.1378,-0.1371,-0.1365,-0.1358,-0.1427,-0.1427,-0.1474,-0.1475,-0.1475]},{"header":{"parameterUnit":"m.s-1","parameterCategory":1,"la1":30.2991,"la2":30.254,"lo1":-89.0895,"lo2":-89.0444,"dy":0.0017,"dx":0.0017,"nx":28,"ny":28,"refTime":"2024-03-09T03:00:00:Z","depth":0,"parameterNumber":3,"parameterNumberName":"V-component_of_WINDS"},"data":[0,0,0,0,0,0,0,0,0,0,0,0,0,0,0,0,0,0,0,0,0,0,0,0,0,0,0,0,0,0,0,0,0,0,0,0,0,0,0,0,0,0,0,0,0,0,0,0,0,0,0,0,0,0,0,0,0,0,-6.5087,-6.5089,0,-6.5248,-6.5249,-6.5251,-6.5172,-6.5168,-6.5164,-6.516,-6.532,-6.5327,-6.5335,0,0,0,0,0,0,0,0,0,0,0,0,0,-6.4707,-6.4714,-6.5087,-6.5089,-6.5091,-6.5247,-6.5249,-6.5252,-6.5173,-6.5168,-6.5162,-6.5158,-6.5317,-6.5326,-6.5336,0,0,0,0,0,0,0,0,0,0,0,0,0,-6.487,-6.4716,-6.5086,-6.507,-6.5071,-6.5247,-6.525,-6.5252,-6.5174,-6.5167,-6.5161,-6.5155,-6.5314,-6.5325,-6.5338,-6.5538,0,0,-6.5375,-6.538,0,0,0,0,0,0,0,0,-6.4861,-6.4884,-6.5071,-6.5072,-6.5072,-6.5183,-6.5174,-6.5348,-6.5175,-6.5134,-6.5159,-6.5152,-6.5279,-6.5294,-6.5337,-6.5545,-6.5552,-6.5376,-6.5383,-6.5388,-6.5392,0,0,0,0,0,0,0,-6.485,-6.4877,-6.515,-6.5074,-6.5075,-6.5053,-6.507,-6.5206,-6.5239,-6.5137,-6.5132,-6.5152,-6.5278,-6.5326,-6.534,-6.5554,-6.5376,-6.5386,-6.5394,-6.5399,-6.5932,-6.5939,0,0,0,0,0,0,-6.484,-6.4868,-6.5145,-6.5155,-6.4949,-6.5065,-6.5084,-6.5154,-6.5238,-6.5245,-6.5158,-6.5148,-6.5308,-6.5326,-6.5346,-6.5585,-6.5388,-6.54,-6.5407,-6.5926,-6.5934,-6.5941,0,0,0,0,0,0,-6.4832,-6.4865,-6.5139,-6.501,-6.5043,-6.5079,-6.5158,-6.516,-6.5208,-6.5253,-6.5258,-6.5201,-6.5304,-6.5329,-6.549,-6.5589,-6.5405,-6.5416,-6.5918,-6.5928,-6.5938,-6.6066,0,0,0,0,0,0,-6.4821,-6.4863,-6.494,-6.5012,-6.5051,-6.5283,-6.5164,-6.5168,-6.523,-6.5219,-6.5295,-6.5301,-6.5301,-6.5473,-6.5503,-6.5603,-6.5426,-6.5909,-6.5922,-6.5934,-6.6053,-6.6079,-6.6101,0,0,0,0,0,-6.4808,-6.4969,-6.4945,-6.4979,-6.5149,-6.5289,-6.531,-6.5308,-6.5238,-6.5316,-6.5344,-6.5299,-6.5574,-6.549,-6.5523,-6.5628,-6.5903,-6.5918,-6.5933,-6.6042,-6.6074,-6.6101,0,0,0,0,0,0,-6.4907,-6.4978,-6.4952,-6.5142,-6.521,-6.5275,-6.5373,-6.5342,-6.543,-6.5416,-6.5407,-6.5425,-6.5593,-6.5627,-6.5532,-6.5826,-6.5727,-6.575,-6.5798,-6.5829,-6.5853,-6.5841,-6.5436,0,0,0,0,0,-6.4951,-6.506,-6.5116,-6.5278,-6.5314,-6.5338,-6.5399,-6.5391,-6.546,-6.5488,-6.5529,-6.5597,-6.5698,-6.5765,-6.5861,-6.6057,-6.6071,-6.6145,-6.6169,-6.6189,-6.6209,-6.6314,-6.6347,-6.5992,-6.5992,-6.5992,0,0,-6.5043,-6.5095,-6.5165,-6.5299,-6.5351,-6.5463,-6.5363,-6.5485,-6.5568,-6.5506,-6.5662,-6.5694,-6.5769,-6.5949,-6.603,-6.5982,-6.631,-6.6209,-6.6224,-6.6234,-6.6334,-6.6367,-6.6397,-6.6003,-6.6001,-6.5999,0,0,-6.5268,-6.5319,-6.5459,-6.5513,-6.5593,-6.5608,-6.5642,-6.5712,-6.5731,-6.5888,-6.5844,-6.5941,-6.6116,-6.6171,-6.6222,-6.6467,-6.6428,-6.6498,-6.6625,-6.6728,-6.6756,-6.678,-6.6867,-6.6899,-6.6517,-6.6518,-6.6518,0,-6.5372,-6.554,-6.5535,-6.5662,-6.5722,-6.5672,-6.5814,-6.5865,-6.5972,-6.6014,-6.5959,-6.6177,-6.6224,-6.6416,-6.6475,-6.6518,-6.6555,-6.6489,-6.6752,-6.6777,-6.68,-6.6883,-6.6916,-6.6526,-6.6525,-6.6524,-6.6523,0,-6.5663,-6.5781,-6.5884,-6.599,-6.6062,-6.6195,-6.6208,-6.6281,-6.6266,-6.6287,-6.6445,-6.65,-6.6606,-6.665,-6.6637,-6.684,-6.6808,-6.6753,-6.6654,-6.6842,-6.692,-6.6951,-6.6537,-6.6534,-6.6532,-6.653,0,0,-6.5956,-6.6057,-6.6096,-6.6143,-6.6227,-6.6317,-6.6447,-6.6551,-6.6614,-6.6688,-6.6796,-6.6945,-6.6895,-6.6953,-6.6945,-6.7035,-6.7225,-6.6969,-6.697,-6.7014,-6.7451,-6.7492,-6.7529,-6.7199,-6.7205,-6.721,-6.7444,0,-6.6187,-6.6417,-6.6416,-6.6627,-6.6735,-6.6689,-6.6802,-6.6865,-6.6887,-6.698,-6.7002,-6.7108,-6.7034,-6.7069,-6.7156,-6.7183,-6.7312,-6.7166,-6.7298,-6.7303,-6.7282,-6.7569,-6.7613,-6.7832,-6.7475,-6.748,-6.7483,0,-6.6488,-6.6574,-6.6797,-6.6865,-6.691,-6.7012,-6.7107,-6.7197,-6.7267,-6.7276,-6.7341,-6.7318,-6.7448,-6.7345,-6.7524,-6.7425,-6.7478,-6.75,-6.7508,-6.7521,-6.7405,-6.759,-6.7902,-6.7935,-6.7531,-6.7527,-6.7524,0,-6.6679,-6.685,-6.7006,-6.7047,-6.713,-6.7203,-6.7241,-6.7304,-6.7367,-6.7449,-6.749,-6.7586,-6.7639,-6.7713,-6.7716,-6.7641,-6.7897,-6.7794,-6.7907,-6.7907,-6.7963,-6.796,-6.8289,-6.7998,-6.7997,-6.7996,-6.7996,0,-6.6937,-6.7075,-6.7093,-6.7189,-6.7341,-6.7337,-6.7488,-6.7519,-6.7575,-6.7675,-6.764,-6.7733,-6.7733,-6.7827,-6.7831,-6.7978,-6.8002,-6.8012,-6.8011,-6.8016,-6.8014,-6.8051,-6.8036,-6.8005,-6.8003,-6.8002,-6.8,0,-6.7177,-6.7195,-6.7361,-6.7426,-6.7445,-6.7555,-6.761,-6.77,-6.7718,-6.7844,-6.7873,-6.7901,-6.8011,-6.8022,-6.8149,-6.8151,-6.8329,-6.8311,-6.8306,-6.8303,-6.8416,-6.8406,-6.8781,-6.8829,-6.8506,-6.8509,-6.8512,0,-6.7341,-6.7447,-6.7523,-6.7588,-6.763,-6.7735,-6.7799,-6.7798,-6.7866,-6.7953,-6.8032,-6.8139,-6.8224,-6.8401,-6.8432,-6.8529,-6.8513,-6.8638,-6.8528,-6.8528,-6.8515,-6.8509,-6.8519,-6.866,-6.8663,-6.8666,-6.8668,0,-6.7631,-6.7634,-6.7728,-6.7827,-6.7904,-6.7981,-6.8052,-6.8107,-6.8115,-6.8192,-6.8305,-6.8372,-6.8502,-6.8607,-6.8702,-6.8738,-6.8705,-6.8703,-6.8734,-6.874,-6.8733,-6.8738,-6.8365,-6.8694,-6.8692,-6.869,-6.8689,-6.8687,-6.7838,-6.7929,-6.7997,-6.8103,-6.8157,-6.8225,-6.8313,-6.8342,-6.8437,-6.8544,-6.8537,-6.8661,-6.8726,-6.885,-6.8894,-6.8989,-6.8947,-6.8993,-6.9004,-6.9016,-6.9027,-6.8717,-6.9006,-6.9006,-6.9005,-6.9004,-6.9004,0,-6.8125,-6.8167,-6.8264,-6.8366,-6.845,-6.8412,-6.8489,-6.856,-6.8671,-6.8735,-6.882,-6.8949,-6.9051,-6.9089,-6.9189,-6.9258,-6.9245,-6.9284,-6.9279,-6.9288,-6.9059,-6.9022,-6.9293,-6.9293,-6.9293,-6.9293,-6.9293,-6.9293,-6.8285,-6.8437,-6.8448,-6.8626,-6.8666,-6.8789,-6.8836,-6.8898,-6.8949,-6.9095,-6.918,-6.9205,-6.9259,-6.9361,-6.9453,-6.9461,-6.9499,-6.9545,-6.9547,-6.9333,-6.9304,-6.9276,-6.9241,-6.9553,-6.9554,-6.9768,-6.977,-6.9771]}]]